Location: ?????????
(54.7630°N, 39.4991°E)
Time: 17:40:47
(UTC+00:00)

Cosmos 1980 Rocket - Pass Details

Date: 14 April 2026
Orbit: 826 x 850 km, 71.0° (Epoch: 16 May)

Event Time Altitude Azimuth Distance (km) Brightness Sun altitude
Rises 22:43:14 0° 326° (NW) 3,422 5.8 -23.3°
Reaches altitude 10° 22:45:41 10° 327° (NNW) 2,485 5.1 -23.2°
Maximum altitude 22:51:25 87° 57° (ENE) 859 2.1 -22.9°
Enters shadow 22:54:29 29° 146° (SE) 1,516 3.2 -22.7°
